THOR AGENA D R/B, 2255

Orbit data source: Space-Track

THOR AGENA D R/B, 2255 is space debris in LEO originally from a launch on Fri, 24 Jun 1966 UTC launched from the Air Force Western Test Range (AFWTR). Debris objects in space refer to the collection of defunct objects orbiting the Earth. Examples of debris include non-operational satellites, rocket bodies, and fragments generated from explosions, collisions, or faulty payload assembly.

Loading next visibility...
Identifier
2255, 1966-056B
Orbit
LEO
Country
Flag of USUS
Related business
Manufacturer
LMSC
Mission
Spacecraft
Bus & Motor
AGENA D, Unknown motor
Mass
600 kg wet, 600 kg dry
Launch date (UTC)
1966-06-24 (59 years ago)
Launch vehicle
Unknown
Launch site
Air Force Western Test Range (AFWTR)
Object type
Payload
Rocket body
Debris
Shape & HBR
Cyl + 1 Nozzle, 3.1 m
Radar Cross Section
8.306 m², Large (>1 m²)

Expand to show TLE details & history
Last TLE update: 15 hours ago

TLE from 15 hours ago
0 THOR AGENA D R/B
1 02255U 66056B   25260.22134355 -.00000004  00000-0 -63096-2 0  9999
2 02255  86.9714 203.1583 0047727 324.6671  35.0978  7.94756992718634
Epoch: 2025-09-17T05:18Z
TLE epoch observation values (Epoch: 2025-09-17T05:18:44.082Z)
Latitude
0.00003°
Longitude
127.07422°
Altitude
4,189.252 km
Speed
6.154 km/s
True Right ascension
13h 32m 37s
True Declination
0° 00' 00"
Sunlit
Object was in daylight at epoch
Visualization orbit readout
Latitude
Unknown
Longitude
Unknown
Altitude
Unknown
Speed
Unknown
Apparent Right ascension
Unknown
Apparent Declination
Unknown
Sunlit
N/A
Visualization observer readout
Local Sidereal Time
13:30:23
Azimuth
Unknown
Elevation
Unknown
Doppler factor
Unknown
Orbital elements
Apogee altitude
4,277.091 km
Perigee altitude
4,175.865 km
Semi-major axis
10,604.615 km
Eccentricity
0.00477
Inclination
86.9714°
RAAN
203.1583°
Arg. of periapsis
324.6671°
True anomaly
35.4138°
Mean anomaly
35.0978°
Eccentric anomaly
35.25565°
Mean motion
1.98747 °/min
Orbital period
181.13 mins
BSTAR
-0.0063096
Loading maneuver chart data...
Computing Atmospheric mass density...

Documentation

Showing up to 5 results
|